This demonstration page uses our WeatherBlox Daily Observations layout. Learn more.

Left ArrowRight Arrow

39.29038, -76.61219

Hourly Observations for April 23, 2022

Temp ( °F °C ) Dew Point ( °F °C ) Humidity (%) Winds ( mph kmh ) Pressure ( in mb ) Visibility ( mi km ) Precip ( " mm )
12:54 am 00:54 Cloudy 58 14.4 43 6.1 58 58 Calm 30.37 1029 10 16 0.00 0.00
1:54 am 01:54 Mostly Cloudy 58 14.4 43 6.1 58 58 Calm 30.36 1028 10 16 0.00 0.00
2:54 am 02:54 Partly Cloudy 58 14.4 43 6.1 58 58 Calm 30.35 1028 10 16 0.00 0.00
3:54 am 03:54 Mostly Clear 53 11.7 43 6.1 69 69 Calm 30.37 1028 10 16 0.00 0.00
4:54 am 04:54 Mostly Clear 51 10.6 43 6.1 74 74 Calm 30.37 1028 10 16 0.00 0.00
5:54 am 05:54 Mostly Clear 50 10 43 6.1 77 77 NE 3 6 30.37 1028 10 16 0.00 0.00
6:54 am 06:54 Mostly Cloudy 55 12.8 39 3.9 55 55 ENE 7 11 30.37 1028 10 16 0.00 0.00
7:54 am 07:54 Mostly Cloudy 58 14.4 40 4.4 51 51 ENE 8 13 30.37 1029 10 16 0.00 0.00
8:54 am 08:54 Mostly Cloudy 58 14.4 37 2.8 46 46 E 10 17 30.38 1029 10 16 0.00 0.00
9:54 am 09:54 Cloudy 59 15 38 3.3 46 46 ENE 12 19 30.38 1029 10 16 0.00 0.00
10:54 am 10:54 Cloudy 62 16.7 40 4.4 44 44 ENE 10 17 30.36 1028 10 16 0.00 0.00
11:54 am 11:54 Mostly Cloudy 63 17.2 42 5.6 47 47 ENE 8 13 30.33 1027 10 16 0.00 0.00
12:54 pm 12:54 Mostly Cloudy 67 19.4 44 6.7 44 44 ENE 8 13 30.31 1026 10 16 0.00 0.00
1:54 pm 13:54 Mostly Cloudy 71 21.7 44 6.7 38 38 SE 12 19 30.28 1025 10 16 0.00 0.00
2:54 pm 14:54 Mostly Cloudy 72 22.2 44 6.7 37 37 S 6 9 30.24 1024 10 16 0.00 0.00
3:54 pm 15:54 Mostly Cloudy 71 21.7 44 6.7 38 38 ESE 12 19 30.21 1023 10 16 0.00 0.00
4:54 pm 16:54 Partly Cloudy 72 22.2 44 6.7 37 37 SE 10 17 30.19 1022 10 16 0.00 0.00
5:54 pm 17:54 Mostly Sunny 71 21.7 44 6.7 38 38 ESE 12 19 30.18 1022 10 16 0.00 0.00
6:54 pm 18:54 Mostly Sunny 70 21.1 45 7.2 41 41 ESE 10 17 30.18 1022 10 16 0.00 0.00
7:54 pm 19:54 Mostly Clear 64 17.8 46 7.8 52 52 E 9 15 30.18 1022 10 16 0.00 0.00
8:54 pm 20:54 Mostly Clear 62 16.7 47 8.3 58 58 E 9 15 30.19 1022 10 16 0.00 0.00
9:54 pm 21:54 Mostly Clear 60 15.6 48 8.9 65 65 E 7 11 30.19 1023 10 16 0.00 0.00
10:54 pm 22:54 Mostly Clear 59 15 47 8.3 64 64 E 8 13 30.19 1022 10 16 0.00 0.00
11:54 pm 23:54 Mostly Clear 57 13.9 47 8.3 69 69 E 7 11 30.18 1022 10 16 0.00 0.00

Powered by AerisWeather